User: anonymous   Login
Location: Fort Worth, Tx
(32.7431°N, 97.3695°W)
Time: 01:03:21
(UTC-04:00)
Language:

FO-29 - Orbit

View from above orbital plane
View from above orbital plane
View from above satellite
View from above satellite

Ground track
Ground track

The orbit data is extracted from the following two-line orbital elements,

1 24278U 96046B   24106.34519471  .00000104  00000-0  14254-3 0  9999
2 24278  98.5759  49.2460 0350040 351.2210   8.2909 13.53180898365939
Epoch (UTC): 15 April 2024 08:17:04
Eccentricity: 0.0350040
inclination: 98.5759°
perigee height: 800 km
apogee height: 1321 km
right ascension of ascending node: 49.2460°
argument of perigee: 351.2210°
revolutions per day: 13.53180898
mean anomaly at epoch: 8.2909°
orbit number at epoch: 36593

The dashed part of the orbit path shows where the satellite is in the earth's shadow,  

DLR